Time,TemperatureF,DewpointF,PressureIn,WindDirection,WindDirectionDegrees,WindSpeedMPH,WindSpeedGustMPH,Humidity,HourlyPrecipIn,Conditions,Clouds,dailyrainin,SoftwareType,DateUTC
2013-05-27 00:01:00,59.3,38.5,30.17,ENE,77,0.0,0.0,46,0.00,,OVC200,0.00,VWS V14.01,2013-05-27 04:01:00,
2013-05-27 00:02:00,59.3,38.5,30.17,ENE,76,0.0,0.0,46,0.00,,OVC200,0.00,VWS V14.01,2013-05-27 04:02:00,
2013-05-27 00:03:00,59.2,38.5,30.17,ENE,77,2.0,3.0,46,0.00,,OVC200,0.00,VWS V14.01,2013-05-27 04:03:00,
2013-05-27 00:05:00,59.2,38.5,30.17,ENE,77,1.0,5.0,46,0.00,,OVC200,0.00,VWS V14.01,2013-05-27 04:05:00,
2013-05-27 00:10:00,59.1,38.4,30.17,ENE,76,0.0,0.0,46,0.00,,OVC200,0.00,VWS V14.01,2013-05-27 04:10:00,
2013-05-27 00:15:00,58.9,38.2,30.17,ENE,76,7.0,7.0,46,0.00,,OVC200,0.00,VWS V14.01,2013-05-27 04:15:00,
2013-05-27 00:20:00,58.8,38.1,30.17,ENE,78,1.0,6.0,46,0.00,,OVC200,0.00,VWS V14.01,2013-05-27 04:20:00,
2013-05-27 00:25:00,58.7,38.5,30.17,ENE,78,0.0,5.0,47,0.00,,OVC200,0.00,VWS V14.01,2013-05-27 04:25:00,
2013-05-27 00:31:00,58.5,38.4,30.16,ENE,77,0.0,0.0,47,0.00,,OVC200,0.00,VWS V14.01,2013-05-27 04:31:00,
2013-05-27 00:36:00,58.5,38.4,30.17,ENE,77,0.0,0.0,47,0.00,,SCT200,0.00,VWS V14.01,2013-05-27 04:36:00,
2013-05-27 00:41:00,58.5,38.4,30.16,ENE,77,2.0,5.0,47,0.00,,SCT200,0.00,VWS V14.01,2013-05-27 04:41:00,
2013-05-27 00:46:00,58.4,38.3,30.17,ENE,77,0.0,1.0,47,0.00,,SCT200,0.00,VWS V14.01,2013-05-27 04:46:00,
2013-05-27 00:51:00,58.3,38.2,30.17,ENE,77,0.0,0.0,47,0.00,,SCT200,0.00,VWS V14.01,2013-05-27 04:51:00,
2013-05-27 00:56:00,58.2,38.6,30.17,ENE,77,0.0,0.0,48,0.00,,SCT200,0.00,VWS V14.01,2013-05-27 04:56:00,
2013-05-27 01:01:00,58.0,38.4,30.17,ENE,77,5.0,5.0,48,0.00,,CLR,0.00,VWS V14.01,2013-05-27 05:01:00,
2013-05-27 01:06:00,57.8,38.3,30.16,ENE,77,0.0,0.0,48,0.00,,CLR,0.00,VWS V14.01,2013-05-27 05:06:00,
2013-05-27 01:11:00,57.7,38.7,30.17,ENE,77,0.0,0.0,49,0.00,,CLR,0.00,VWS V14.01,2013-05-27 05:11:00,
2013-05-27 01:16:00,57.6,38.1,30.17,ENE,78,0.0,5.0,48,0.00,,CLR,0.00,VWS V14.01,2013-05-27 05:16:00,
2013-05-27 01:21:00,57.6,38.6,30.16,ENE,78,1.0,5.0,49,0.00,,CLR,0.00,VWS V14.01,2013-05-27 05:21:00,
2013-05-27 01:26:00,57.5,38.5,30.17,East,82,0.0,6.0,49,0.00,,CLR,0.00,VWS V14.01,2013-05-27 05:26:00,
2013-05-27 01:31:00,57.5,38.0,30.17,East,84,3.0,7.0,48,0.00,,CLR,0.00,VWS V14.01,2013-05-27 05:31:00,
2013-05-27 01:36:00,57.5,38.0,30.16,East,89,1.0,5.0,48,0.00,,CLR,0.00,VWS V14.01,2013-05-27 05:36:00,
2013-05-27 01:41:00,57.4,37.9,30.16,East,82,0.0,7.0,48,0.00,,CLR,0.00,VWS V14.01,2013-05-27 05:41:00,
2013-05-27 01:46:00,57.4,37.9,30.16,East,82,8.0,8.0,48,0.00,,CLR,0.00,VWS V14.01,2013-05-27 05:46:00,
2013-05-27 01:51:00,57.3,37.8,30.16,East,79,3.0,6.0,48,0.00,,CLR,0.00,VWS V14.01,2013-05-27 05:51:00,
2013-05-27 01:56:00,57.3,37.8,30.16,East,79,7.0,7.0,48,0.00,,CLR,0.00,VWS V14.01,2013-05-27 05:56:00,
2013-05-27 02:01:00,57.4,37.9,30.16,East,85,0.0,5.0,48,0.00,,CLR,0.00,VWS V14.01,2013-05-27 06:01:00,
2013-05-27 02:06:00,57.4,37.9,30.15,East,84,1.0,5.0,48,0.00,,CLR,0.00,VWS V14.01,2013-05-27 06:06:00,
2013-05-27 02:11:00,57.4,37.9,30.15,East,89,5.0,7.0,48,0.00,,CLR,0.00,VWS V14.01,2013-05-27 06:11:00,
2013-05-27 02:16:00,57.4,38.4,30.15,East,91,0.0,7.0,49,0.00,,CLR,0.00,VWS V14.01,2013-05-27 06:16:00,
2013-05-27 02:21:00,57.3,38.8,30.15,East,91,7.0,7.0,50,0.00,,CLR,0.00,VWS V14.01,2013-05-27 06:21:00,
2013-05-27 02:26:00,57.2,38.8,30.15,East,87,6.0,6.0,50,0.00,,CLR,0.00,VWS V14.01,2013-05-27 06:26:00,
2013-05-27 02:31:00,57.1,38.7,30.15,East,96,7.0,11.0,50,0.00,,CLR,0.00,VWS V14.01,2013-05-27 06:31:00,
2013-05-27 02:36:00,56.9,39.0,30.14,East,95,0.0,8.0,51,0.00,,CLR,0.00,VWS V14.01,2013-05-27 06:36:00,
2013-05-27 02:41:00,56.8,38.9,30.14,East,86,3.0,10.0,51,0.00,,CLR,0.00,VWS V14.01,2013-05-27 06:41:00,
2013-05-27 02:46:00,56.7,38.8,30.14,East,86,0.0,8.0,51,0.00,,CLR,0.00,VWS V14.01,2013-05-27 06:46:00,
2013-05-27 02:52:00,56.5,39.1,30.14,ENE,77,0.0,2.0,52,0.00,,CLR,0.00,VWS V14.01,2013-05-27 06:52:00,
2013-05-27 02:57:00,56.4,39.0,30.14,ENE,78,0.0,6.0,52,0.00,,CLR,0.00,VWS V14.01,2013-05-27 06:57:00,
2013-05-27 03:02:00,56.3,39.4,30.14,ENE,76,0.0,0.0,53,0.00,,CLR,0.00,VWS V14.01,2013-05-27 07:02:00,
2013-05-27 03:07:00,56.0,39.6,30.14,ENE,77,5.0,7.0,54,0.00,,CLR,0.00,VWS V14.01,2013-05-27 07:07:00,
2013-05-27 03:12:00,55.8,39.4,30.14,East,80,0.0,7.0,54,0.00,,CLR,0.00,VWS V14.01,2013-05-27 07:12:00,
2013-05-27 03:17:00,55.6,39.2,30.14,East,80,0.0,6.0,54,0.00,,CLR,0.00,VWS V14.01,2013-05-27 07:17:00,
2013-05-27 03:22:00,55.5,39.6,30.14,East,80,0.0,0.0,55,0.00,,CLR,0.00,VWS V14.01,2013-05-27 07:22:00,
2013-05-27 03:27:00,55.4,39.5,30.14,East,80,0.0,5.0,55,0.00,,CLR,0.00,VWS V14.01,2013-05-27 07:27:00,
2013-05-27 03:32:00,55.2,39.8,30.14,East,82,5.0,6.0,56,0.00,,CLR,0.00,VWS V14.01,2013-05-27 07:32:00,
2013-05-27 03:37:00,55.1,39.7,30.14,East,83,0.0,6.0,56,0.00,,CLR,0.00,VWS V14.01,2013-05-27 07:37:00,
2013-05-27 03:42:00,55.0,40.1,30.14,East,80,0.0,0.0,57,0.00,,CLR,0.00,VWS V14.01,2013-05-27 07:42:00,
2013-05-27 03:47:00,54.8,39.9,30.14,East,80,0.0,3.0,57,0.00,,CLR,0.00,VWS V14.01,2013-05-27 07:47:00,
2013-05-27 03:52:00,54.7,39.8,30.14,East,80,0.0,2.0,57,0.00,,CLR,0.00,VWS V14.01,2013-05-27 07:52:00,
2013-05-27 03:57:00,54.6,40.1,30.14,East,80,0.0,0.0,58,0.00,,CLR,0.00,VWS V14.01,2013-05-27 07:57:00,
2013-05-27 04:02:00,54.5,40.0,30.14,East,80,0.0,6.0,58,0.00,,CLR,0.00,VWS V14.01,2013-05-27 08:02:00,
2013-05-27 04:07:00,54.3,39.8,30.14,East,80,0.0,2.0,58,0.00,,CLR,0.00,VWS V14.01,2013-05-27 08:07:00,
2013-05-27 04:12:00,54.2,40.2,30.13,East,80,0.0,5.0,59,0.00,,CLR,0.00,VWS V14.01,2013-05-27 08:12:00,
2013-05-27 04:17:00,54.0,40.0,30.14,East,80,0.0,3.0,59,0.00,,CLR,0.00,VWS V14.01,2013-05-27 08:17:00,
2013-05-27 04:22:00,53.9,40.3,30.13,East,80,0.0,5.0,60,0.00,,CLR,0.00,VWS V14.01,2013-05-27 08:22:00,
2013-05-27 04:27:00,53.8,40.3,30.13,East,80,1.0,1.0,60,0.00,,CLR,0.00,VWS V14.01,2013-05-27 08:27:00,
2013-05-27 04:32:00,53.7,40.2,30.13,East,80,1.0,3.0,60,0.00,,CLR,0.00,VWS V14.01,2013-05-27 08:32:00,
2013-05-27 04:37:00,53.7,40.6,30.13,East,80,0.0,3.0,61,0.00,,CLR,0.00,VWS V14.01,2013-05-27 08:37:00,
2013-05-27 04:42:00,53.6,40.5,30.12,East,80,0.0,0.0,61,0.00,,CLR,0.00,VWS V14.01,2013-05-27 08:42:00,
2013-05-27 04:47:00,53.6,40.5,30.13,East,80,0.0,0.0,61,0.00,,CLR,0.00,VWS V14.01,2013-05-27 08:47:00,
2013-05-27 04:52:00,53.6,40.5,30.12,East,83,3.0,3.0,61,0.00,,CLR,0.00,VWS V14.01,2013-05-27 08:52:00,
2013-05-27 04:57:00,53.6,40.5,30.13,East,80,0.0,6.0,61,0.00,,CLR,0.00,VWS V14.01,2013-05-27 08:57:00,
2013-05-27 05:02:00,53.6,40.5,30.13,East,80,0.0,3.0,61,0.00,,CLR,0.00,VWS V14.01,2013-05-27 09:02:00,
2013-05-27 05:07:00,53.5,40.4,30.12,East,80,0.0,0.0,61,0.00,,CLR,0.00,VWS V14.01,2013-05-27 09:07:00,
2013-05-27 05:12:00,53.5,40.4,30.13,East,80,5.0,6.0,61,0.00,,CLR,0.00,VWS V14.01,2013-05-27 09:12:00,
2013-05-27 05:18:00,53.5,40.4,30.13,East,80,0.0,5.0,61,0.00,,CLR,0.00,VWS V14.01,2013-05-27 09:18:00,
2013-05-27 05:23:00,53.6,40.1,30.13,East,82,8.0,8.0,60,0.00,,CLR,0.00,VWS V14.01,2013-05-27 09:23:00,
2013-05-27 05:28:00,53.7,40.2,30.12,East,82,0.0,0.0,60,0.00,,CLR,0.00,VWS V14.01,2013-05-27 09:28:00,
2013-05-27 05:33:00,53.7,40.2,30.12,East,84,1.0,7.0,60,0.00,,CLR,0.00,VWS V14.01,2013-05-27 09:33:00,
2013-05-27 05:38:00,53.7,40.2,30.12,East,88,2.0,8.0,60,0.00,,CLR,0.00,VWS V14.01,2013-05-27 09:38:00,
2013-05-27 05:43:00,53.7,40.2,30.12,East,87,2.0,10.0,60,0.00,,CLR,0.00,VWS V14.01,2013-05-27 09:43:00,
2013-05-27 05:48:00,53.7,40.2,30.12,East,88,2.0,7.0,60,0.00,,CLR,0.00,VWS V14.01,2013-05-27 09:48:00,
2013-05-27 05:53:00,53.6,40.1,30.12,East,93,9.0,9.0,60,0.00,,CLR,0.00,VWS V14.01,2013-05-27 09:53:00,
2013-05-27 05:58:00,53.6,40.1,30.12,East,91,3.0,4.0,60,0.00,,CLR,0.00,VWS V14.01,2013-05-27 09:58:00,
2013-05-27 06:03:00,53.6,39.6,30.11,East,87,6.0,7.0,59,0.00,,OVC210,0.00,VWS V14.01,2013-05-27 10:03:00,
2013-05-27 06:08:00,53.7,39.7,30.12,East,93,5.0,9.0,59,0.00,,OVC210,0.00,VWS V14.01,2013-05-27 10:08:00,
2013-05-27 06:13:00,53.7,39.7,30.11,East,91,9.0,9.0,59,0.00,,OVC210,0.00,VWS V14.01,2013-05-27 10:13:00,
2013-05-27 06:18:00,53.8,39.8,30.12,East,90,2.0,5.0,59,0.00,,OVC210,0.00,VWS V14.01,2013-05-27 10:18:00,
2013-05-27 06:23:00,53.7,39.7,30.12,East,97,2.0,10.0,59,0.00,,OVC210,0.00,VWS V14.01,2013-05-27 10:23:00,
2013-05-27 06:28:00,53.7,39.7,30.12,East,97,4.0,4.0,59,0.00,,OVC210,0.00,VWS V14.01,2013-05-27 10:28:00,
2013-05-27 06:33:00,53.7,39.7,30.12,East,96,0.0,3.0,59,0.00,,OVC210,0.00,VWS V14.01,2013-05-27 10:33:00,
2013-05-27 06:38:00,53.7,39.7,30.12,East,96,0.0,3.0,59,0.00,,OVC210,0.00,VWS V14.01,2013-05-27 10:38:00,
2013-05-27 06:43:00,53.7,39.7,30.12,East,89,4.0,11.0,59,0.00,,OVC210,0.00,VWS V14.01,2013-05-27 10:43:00,
2013-05-27 06:48:00,53.8,39.8,30.12,East,90,5.0,5.0,59,0.00,,OVC210,0.00,VWS V14.01,2013-05-27 10:48:00,
2013-05-27 06:53:00,54.0,40.0,30.12,East,90,1.0,5.0,59,0.00,,OVC210,0.00,VWS V14.01,2013-05-27 10:53:00,
2013-05-27 06:58:00,54.1,40.1,30.13,East,91,4.0,8.0,59,0.00,,OVC210,0.00,VWS V14.01,2013-05-27 10:58:00,
2013-05-27 07:03:00,54.3,39.8,30.13,East,90,0.0,8.0,58,0.00,,OVC210,0.00,VWS V14.01,2013-05-27 11:03:00,
2013-05-27 07:08:00,54.4,40.0,30.12,East,82,7.0,8.0,58,0.00,,OVC210,0.00,VWS V14.01,2013-05-27 11:08:00,
2013-05-27 07:13:00,54.5,40.0,30.13,East,82,3.0,3.0,58,0.00,,OVC210,0.00,VWS V14.01,2013-05-27 11:13:00,
2013-05-27 07:18:00,54.6,40.1,30.12,East,82,2.0,6.0,58,0.00,,OVC210,0.00,VWS V14.01,2013-05-27 11:18:00,
2013-05-27 07:23:00,54.6,40.1,30.12,East,84,0.0,8.0,58,0.00,,OVC210,0.00,VWS V14.01,2013-05-27 11:23:00,
2013-05-27 07:28:00,54.7,40.2,30.12,East,84,3.0,7.0,58,0.00,,OVC210,0.00,VWS V14.01,2013-05-27 11:28:00,
2013-05-27 07:33:00,54.8,39.9,30.12,East,88,0.0,0.0,57,0.00,,OVC210,0.00,VWS V14.01,2013-05-27 11:33:00,
2013-05-27 07:39:00,54.9,40.0,30.11,East,89,5.0,7.0,57,0.00,,OVC210,0.00,VWS V14.01,2013-05-27 11:39:00,
2013-05-27 07:44:00,55.0,40.1,30.11,East,95,2.0,7.0,57,0.00,,OVC210,0.00,VWS V14.01,2013-05-27 11:44:00,
2013-05-27 07:49:00,55.2,40.2,30.11,East,91,5.0,8.0,57,0.00,,OVC210,0.00,VWS V14.01,2013-05-27 11:49:00,
2013-05-27 07:54:00,55.3,39.9,30.11,East,80,6.0,10.0,56,0.00,,OVC210,0.00,VWS V14.01,2013-05-27 11:54:00,
2013-05-27 07:59:00,55.4,40.0,30.11,East,80,5.0,6.0,56,0.00,,OVC210,0.00,VWS V14.01,2013-05-27 11:59:00,
2013-05-27 08:04:00,55.6,40.2,30.11,East,93,0.0,1.0,56,0.00,,OVC210,0.00,VWS V14.01,2013-05-27 12:04:00,
2013-05-27 08:09:00,55.9,40.5,30.11,East,93,2.0,4.0,56,0.00,,OVC210,0.00,VWS V14.01,2013-05-27 12:09:00,
2013-05-27 08:14:00,56.3,40.8,30.11,East,97,0.0,8.0,56,0.00,,OVC210,0.00,VWS V14.01,2013-05-27 12:14:00,
2013-05-27 08:19:00,56.8,41.3,30.11,East,100,0.0,7.0,56,0.00,,OVC210,0.00,VWS V14.01,2013-05-27 12:19:00,
2013-05-27 08:24:00,57.4,41.4,30.11,ESE,113,3.0,9.0,55,0.00,,OVC210,0.00,VWS V14.01,2013-05-27 12:24:00,
2013-05-27 08:29:00,57.7,41.2,30.11,SE,125,0.0,3.0,54,0.00,,OVC210,0.00,VWS V14.01,2013-05-27 12:29:00,
2013-05-27 08:34:00,58.0,41.9,30.11,SE,130,12.0,12.0,55,0.00,,OVC210,0.00,VWS V14.01,2013-05-27 12:34:00,
2013-05-27 08:39:00,58.4,41.8,30.11,East,96,4.0,10.0,54,0.00,,OVC210,0.00,VWS V14.01,2013-05-27 12:39:00,
2013-05-27 08:44:00,58.8,41.2,30.12,East,89,7.0,11.0,52,0.00,,OVC210,0.00,VWS V14.01,2013-05-27 12:44:00,
2013-05-27 08:49:00,58.7,41.1,30.11,ESE,109,0.0,8.0,52,0.00,,OVC210,0.00,VWS V14.01,2013-05-27 12:49:00,
2013-05-27 08:54:00,58.7,41.1,30.11,SE,129,5.0,6.0,52,0.00,,OVC210,0.00,VWS V14.01,2013-05-27 12:54:00,
2013-05-27 08:59:00,58.7,41.1,30.11,East,96,5.0,10.0,52,0.00,,OVC210,0.00,VWS V14.01,2013-05-27 12:59:00,
2013-05-27 09:04:00,58.7,41.1,30.11,ESE,118,5.0,12.0,52,0.00,,OVC210,0.00,VWS V14.01,2013-05-27 13:04:00,
2013-05-27 09:09:00,58.8,41.2,30.12,ESE,103,1.0,6.0,52,0.00,,OVC210,0.00,VWS V14.01,2013-05-27 13:09:00,
2013-05-27 09:14:00,58.8,41.2,30.11,ESE,120,3.0,10.0,52,0.00,,OVC210,0.00,VWS V14.01,2013-05-27 13:14:00,
2013-05-27 09:19:00,58.8,41.2,30.12,SE,132,3.0,10.0,52,0.00,,OVC210,0.00,VWS V14.01,2013-05-27 13:19:00,
2013-05-27 09:24:00,58.9,41.3,30.11,ESE,106,7.0,9.0,52,0.00,,OVC210,0.00,VWS V14.01,2013-05-27 13:24:00,
2013-05-27 09:29:00,59.0,41.4,30.11,ESE,113,0.0,5.0,52,0.00,,OVC210,0.00,VWS V14.01,2013-05-27 13:29:00,
2013-05-27 09:35:00,59.1,41.5,30.11,East,90,3.0,10.0,52,0.00,,OVC210,0.00,VWS V14.01,2013-05-27 13:35:00,
2013-05-27 09:40:00,59.2,42.1,30.11,SE,135,3.0,8.0,53,0.00,,OVC210,0.00,VWS V14.01,2013-05-27 13:40:00,
2013-05-27 09:45:00,59.4,41.8,30.11,East,89,0.0,3.0,52,0.00,,OVC210,0.00,VWS V14.01,2013-05-27 13:45:00,
2013-05-27 09:50:00,59.4,41.3,30.11,East,92,8.0,8.0,51,0.00,,OVC210,0.00,VWS V14.01,2013-05-27 13:50:00,
2013-05-27 09:55:00,59.6,42.0,30.11,ESE,114,5.0,7.0,52,0.00,,OVC210,0.00,VWS V14.01,2013-05-27 13:55:00,
2013-05-27 10:00:00,59.7,42.1,30.11,East,96,0.0,6.0,52,0.00,,OVC210,0.00,VWS V14.01,2013-05-27 14:00:00,
2013-05-27 10:05:00,59.8,41.7,30.11,East,97,9.0,9.0,51,0.00,,OVC210,0.00,VWS V14.01,2013-05-27 14:05:00,
2013-05-27 10:10:00,60.0,41.8,30.10,East,87,5.0,7.0,51,0.00,,OVC210,0.00,VWS V14.01,2013-05-27 14:10:00,
2013-05-27 10:15:00,60.1,41.9,30.10,ESE,121,1.0,7.0,51,0.00,,OVC210,0.00,VWS V14.01,2013-05-27 14:15:00,
2013-05-27 10:20:00,60.3,42.6,30.10,ENE,77,6.0,10.0,52,0.00,,OVC210,0.00,VWS V14.01,2013-05-27 14:20:00,
2013-05-27 10:25:00,60.4,42.7,30.09,ESE,108,0.0,6.0,52,0.00,,OVC210,0.00,VWS V14.01,2013-05-27 14:25:00,
2013-05-27 10:30:00,60.4,42.2,30.09,SE,126,4.0,4.0,51,0.00,,OVC210,0.00,VWS V14.01,2013-05-27 14:30:00,
2013-05-27 10:35:00,60.4,42.7,30.09,ESE,114,7.0,10.0,52,0.00,,OVC210,0.00,VWS V14.01,2013-05-27 14:35:00,
2013-05-27 10:40:00,60.4,42.7,30.09,East,101,9.0,19.0,52,0.00,,OVC210,0.00,VWS V14.01,2013-05-27 14:40:00,
2013-05-27 10:45:00,60.4,42.7,30.08,ESE,112,0.0,8.0,52,0.00,,OVC210,0.00,VWS V14.01,2013-05-27 14:45:00,
2013-05-27 10:50:00,60.4,42.2,30.08,ESE,105,10.0,16.0,51,0.00,,OVC210,0.00,VWS V14.01,2013-05-27 14:50:00,
2013-05-27 10:55:00,60.4,42.2,30.08,ESE,110,7.0,9.0,51,0.00,,OVC210,0.00,VWS V14.01,2013-05-27 14:55:00,
2013-05-27 11:00:00,60.4,42.7,30.08,SE,133,5.0,13.0,52,0.00,,OVC210,0.00,VWS V14.01,2013-05-27 15:00:00,
2013-05-27 11:05:00,60.4,42.2,30.08,East,97,0.0,15.0,51,0.00,,OVC210,0.00,VWS V14.01,2013-05-27 15:05:00,
2013-05-27 11:10:00,60.4,42.2,30.08,East,91,9.0,11.0,51,0.00,,OVC210,0.00,VWS V14.01,2013-05-27 15:10:00,
2013-05-27 11:15:00,60.3,42.6,30.08,ESE,120,0.0,10.0,52,0.00,,OVC085,0.00,VWS V14.01,2013-05-27 15:15:00,
2013-05-27 11:20:00,60.1,42.4,30.08,SE,136,1.0,9.0,52,0.00,,OVC085,0.00,VWS V14.01,2013-05-27 15:20:00,
2013-05-27 11:25:00,60.1,42.9,30.08,ESE,112,3.0,7.0,53,0.00,,OVC085,0.00,VWS V14.01,2013-05-27 15:25:00,
2013-05-27 11:30:00,60.2,42.5,30.07,SE,143,3.0,9.0,52,0.00,,OVC085,0.00,VWS V14.01,2013-05-27 15:30:00,
2013-05-27 11:35:00,60.4,43.7,30.08,SE,124,0.0,7.0,54,0.00,,OVC085,0.00,VWS V14.01,2013-05-27 15:35:00,
2013-05-27 11:40:00,60.4,43.2,30.08,SE,128,1.0,5.0,53,0.00,,OVC085,0.00,VWS V14.01,2013-05-27 15:40:00,
2013-05-27 11:45:00,60.4,43.2,30.08,ESE,123,5.0,8.0,53,0.00,,OVC085,0.00,VWS V14.01,2013-05-27 15:45:00,
2013-05-27 11:51:00,60.4,43.2,30.08,SE,134,10.0,12.0,53,0.00,,OVC085,0.00,VWS V14.01,2013-05-27 15:51:00,
2013-05-27 11:56:00,60.4,43.7,30.07,East,90,1.0,13.0,54,0.00,,OVC085,0.00,VWS V14.01,2013-05-27 15:56:00,
2013-05-27 12:01:00,60.4,43.2,30.07,East,97,5.0,9.0,53,0.00,,OVC085,0.00,VWS V14.01,2013-05-27 16:01:00,
2013-05-27 12:06:00,60.4,43.7,30.07,SE,136,11.0,12.0,54,0.00,,OVC080,0.00,VWS V14.01,2013-05-27 16:06:00,
2013-05-27 12:11:00,60.4,43.7,30.07,SE,124,5.0,12.0,54,0.00,,OVC080,0.00,VWS V14.01,2013-05-27 16:11:00,
2013-05-27 12:16:00,60.3,43.6,30.07,East,84,0.0,9.0,54,0.00,,OVC080,0.00,VWS V14.01,2013-05-27 16:16:00,
2013-05-27 12:21:00,60.2,44.0,30.07,ESE,116,0.0,5.0,55,0.00,,OVC080,0.00,VWS V14.01,2013-05-27 16:21:00,
2013-05-27 12:26:00,60.2,44.0,30.07,East,92,11.0,11.0,55,0.00,,OVC080,0.00,VWS V14.01,2013-05-27 16:26:00,
2013-05-27 12:31:00,60.3,44.6,30.07,SSE,151,11.0,14.0,56,0.00,,OVC080,0.00,VWS V14.01,2013-05-27 16:31:00,
2013-05-27 12:36:00,60.4,44.2,30.06,ESE,116,5.0,12.0,55,0.00,,OVC080,0.00,VWS V14.01,2013-05-27 16:36:00,
2013-05-27 12:41:00,60.4,44.2,30.06,SE,129,3.0,10.0,55,0.00,,OVC080,0.00,VWS V14.01,2013-05-27 16:41:00,
2013-05-27 12:46:00,60.5,44.3,30.06,SSE,153,0.0,9.0,55,0.00,,OVC080,0.00,VWS V14.01,2013-05-27 16:46:00,
2013-05-27 12:51:00,60.8,44.5,30.06,ESE,120,3.0,10.0,55,0.00,,OVC080,0.00,VWS V14.01,2013-05-27 16:51:00,
2013-05-27 12:56:00,60.8,44.1,30.07,SSE,152,5.0,9.0,54,0.00,,OVC080,0.00,VWS V14.01,2013-05-27 16:56:00,
2013-05-27 13:01:00,60.7,44.9,30.07,SE,136,3.0,13.0,56,0.00,,OVC043,0.00,VWS V14.01,2013-05-27 17:01:00,
2013-05-27 13:06:00,60.4,45.1,30.07,SSE,149,3.0,13.0,57,0.00,,OVC043,0.00,VWS V14.01,2013-05-27 17:06:00,
2013-05-27 13:11:00,60.2,45.4,30.07,SE,126,0.0,9.0,58,0.00,,OVC043,0.00,VWS V14.01,2013-05-27 17:11:00,
2013-05-27 13:16:00,60.0,45.2,30.06,ESE,116,9.0,9.0,58,0.00,,OVC043,0.00,VWS V14.01,2013-05-27 17:16:00,
2013-05-27 13:21:00,59.9,45.1,30.07,ESE,105,1.0,9.0,58,0.00,,OVC043,0.00,VWS V14.01,2013-05-27 17:21:00,
2013-05-27 13:26:00,59.9,45.1,30.06,SE,126,13.0,13.0,58,0.00,,OVC043,0.00,VWS V14.01,2013-05-27 17:26:00,
2013-05-27 13:31:00,60.0,46.1,30.07,ESE,122,5.0,14.0,60,0.00,,OVC043,0.00,VWS V14.01,2013-05-27 17:31:00,
2013-05-27 13:36:00,59.9,46.9,30.07,SE,129,4.0,13.0,62,0.00,,OVC043,0.00,VWS V14.01,2013-05-27 17:36:00,
2013-05-27 13:42:00,59.5,46.9,30.07,SE,129,6.0,15.0,63,0.00,,OVC043,0.00,VWS V14.01,2013-05-27 17:42:00,
2013-05-27 13:47:00,59.0,46.8,30.07,ESE,112,8.0,9.0,64,0.00,,OVC043,0.00,VWS V14.01,2013-05-27 17:47:00,
2013-05-27 13:52:00,58.5,46.8,30.07,ESE,116,7.0,9.0,65,0.00,,OVC043,0.00,VWS V14.01,2013-05-27 17:52:00,
2013-05-27 13:57:00,57.9,47.0,30.07,ESE,114,9.0,10.0,67,0.00,,OVC043,0.00,VWS V14.01,2013-05-27 17:57:00,
2013-05-27 14:02:00,57.3,47.2,30.08,SSE,153,4.0,12.0,69,0.00,,-RA,0.00,VWS V14.01,2013-05-27 18:02:00,
2013-05-27 14:07:00,56.5,47.2,30.08,ESE,113,5.0,13.0,71,0.00,,-RA,0.00,VWS V14.01,2013-05-27 18:07:00,
2013-05-27 14:12:00,55.9,47.7,30.08,ESE,118,5.0,8.0,74,0.00,,-RA,0.00,VWS V14.01,2013-05-27 18:12:00,
2013-05-27 14:17:00,55.2,47.8,30.07,ESE,112,6.0,11.0,76,0.00,,-RA,0.00,VWS V14.01,2013-05-27 18:17:00,
2013-05-27 14:22:00,54.7,48.0,30.07,East,89,3.0,13.0,78,0.00,,-RA,0.00,VWS V14.01,2013-05-27 18:22:00,
2013-05-27 14:27:00,54.3,48.3,30.07,East,86,9.0,9.0,80,0.01,,-RA,0.01,VWS V14.01,2013-05-27 18:27:00,
2013-05-27 14:32:00,54.0,48.3,30.07,East,94,5.0,11.0,81,0.01,,-RA,0.01,VWS V14.01,2013-05-27 18:32:00,
2013-05-27 14:37:00,53.8,48.4,30.07,East,83,7.0,17.0,82,0.01,,-RA,0.01,VWS V14.01,2013-05-27 18:37:00,
2013-05-27 14:42:00,53.7,48.7,30.07,ENE,60,4.0,11.0,83,0.01,,-RA,0.01,VWS V14.01,2013-05-27 18:42:00,
2013-05-27 14:47:00,53.5,48.8,30.06,East,97,1.0,12.0,84,0.01,,-RA,0.01,VWS V14.01,2013-05-27 18:47:00,
2013-05-27 14:52:00,53.5,49.1,30.06,NE,38,5.0,10.0,85,0.01,,-RA,0.01,VWS V14.01,2013-05-27 18:52:00,
2013-05-27 14:57:00,53.6,49.2,30.05,East,80,9.0,10.0,85,0.01,,-RA,0.01,VWS V14.01,2013-05-27 18:57:00,
2013-05-27 15:02:00,53.5,49.4,30.05,ESE,109,11.0,12.0,86,0.01,,-RA,0.01,VWS V14.01,2013-05-27 19:02:00,
2013-05-27 15:07:00,53.5,49.4,30.05,East,97,4.0,9.0,86,0.01,,-RA,0.01,VWS V14.01,2013-05-27 19:07:00,
2013-05-27 15:12:00,53.5,49.4,30.05,ENE,66,1.0,10.0,86,0.01,,-RA,0.01,VWS V14.01,2013-05-27 19:12:00,
2013-05-27 15:17:00,53.4,49.3,30.05,NE,55,5.0,11.0,86,0.01,,-RA,0.01,VWS V14.01,2013-05-27 19:17:00,
2013-05-27 15:22:00,53.3,49.2,30.04,ENE,78,8.0,13.0,86,0.01,,-RA,0.01,VWS V14.01,2013-05-27 19:22:00,
2013-05-27 15:27:00,53.3,49.2,30.04,East,79,2.0,9.0,86,0.01,,-RA,0.01,VWS V14.01,2013-05-27 19:27:00,
2013-05-27 15:32:00,53.3,49.2,30.04,East,99,9.0,11.0,86,0.00,,-RA,0.01,VWS V14.01,2013-05-27 19:32:00,
2013-05-27 15:37:00,53.3,49.2,30.04,East,82,7.0,7.0,86,0.00,,-RA,0.01,VWS V14.01,2013-05-27 19:37:00,
2013-05-27 15:42:00,53.3,49.2,30.04,ENE,76,0.0,0.0,86,0.00,,-RA,0.01,VWS V14.01,2013-05-27 19:42:00,
2013-05-27 15:47:00,53.4,49.3,30.04,ENE,74,11.0,12.0,86,0.00,,-RA,0.01,VWS V14.01,2013-05-27 19:47:00,
2013-05-27 15:53:00,53.3,49.2,30.04,East,79,7.0,13.0,86,0.00,,-RA,0.01,VWS V14.01,2013-05-27 19:53:00,
2013-05-27 15:58:00,53.3,49.2,30.04,NE,55,9.0,17.0,86,0.00,,-RA,0.01,VWS V14.01,2013-05-27 19:58:00,
2013-05-27 16:03:00,53.3,49.2,30.03,ESE,104,0.0,2.0,86,0.00,,OVC037,0.01,VWS V14.01,2013-05-27 20:03:00,
2013-05-27 16:08:00,53.3,49.5,30.03,East,80,0.0,7.0,87,0.00,,OVC037,0.01,VWS V14.01,2013-05-27 20:08:00,
2013-05-27 16:13:00,53.4,49.6,30.03,East,84,5.0,9.0,87,0.00,,OVC037,0.01,VWS V14.01,2013-05-27 20:13:00,
2013-05-27 16:18:00,53.5,49.7,30.03,East,83,0.0,0.0,87,0.00,,OVC037,0.01,VWS V14.01,2013-05-27 20:18:00,
2013-05-27 16:23:00,53.5,49.7,30.02,ENE,68,0.0,8.0,87,0.00,,OVC037,0.01,VWS V14.01,2013-05-27 20:23:00,
2013-05-27 16:28:00,53.6,49.8,30.02,ENE,78,8.0,11.0,87,0.00,,OVC037,0.01,VWS V14.01,2013-05-27 20:28:00,
2013-05-27 16:33:00,53.6,49.5,30.02,East,79,14.0,14.0,86,0.00,,OVC037,0.01,VWS V14.01,2013-05-27 20:33:00,
2013-05-27 16:38:00,53.5,49.4,30.01,ENE,76,0.0,8.0,86,0.00,,OVC037,0.01,VWS V14.01,2013-05-27 20:38:00,
2013-05-27 16:43:00,53.5,49.4,30.01,East,79,0.0,9.0,86,0.00,,OVC037,0.01,VWS V14.01,2013-05-27 20:43:00,
2013-05-27 16:48:00,53.5,49.1,30.01,East,100,5.0,8.0,85,0.00,,OVC037,0.01,VWS V14.01,2013-05-27 20:48:00,
2013-05-27 16:53:00,53.5,49.1,30.01,ESE,103,4.0,11.0,85,0.00,,OVC037,0.01,VWS V14.01,2013-05-27 20:53:00,
2013-05-27 16:58:00,53.5,48.8,30.01,ENE,57,0.0,0.0,84,0.00,,OVC037,0.01,VWS V14.01,2013-05-27 20:58:00,
2013-05-27 17:03:00,53.6,49.2,30.01,East,85,3.0,3.0,85,0.00,,-RA,0.01,VWS V14.01,2013-05-27 21:03:00,
2013-05-27 17:08:00,53.6,49.2,30.00,East,92,7.0,8.0,85,0.00,,-RA,0.01,VWS V14.01,2013-05-27 21:08:00,
2013-05-27 17:13:00,53.6,49.2,30.00,East,100,8.0,10.0,85,0.00,,-RA,0.01,VWS V14.01,2013-05-27 21:13:00,
2013-05-27 17:18:00,53.5,49.4,30.00,East,91,0.0,9.0,86,0.01,,-RA,0.02,VWS V14.01,2013-05-27 21:18:00,
2013-05-27 17:23:00,53.4,49.3,30.00,East,90,0.0,0.0,86,0.02,,-RA,0.03,VWS V14.01,2013-05-27 21:23:00,
2013-05-27 17:28:00,53.4,49.6,30.00,East,80,0.0,0.0,87,0.02,,-RA,0.03,VWS V14.01,2013-05-27 21:28:00,
2013-05-27 17:33:00,53.3,49.5,30.00,ESE,103,4.0,8.0,87,0.03,,-RA,0.04,VWS V14.01,2013-05-27 21:33:00,
2013-05-27 17:38:00,53.1,49.3,29.99,East,101,3.0,7.0,87,0.04,,-RA,0.05,VWS V14.01,2013-05-27 21:38:00,
2013-05-27 17:43:00,53.0,49.5,30.00,East,80,1.0,5.0,88,0.04,,-RA,0.05,VWS V14.01,2013-05-27 21:43:00,
2013-05-27 17:48:00,52.9,49.5,29.99,ENE,76,0.0,0.0,88,0.04,,-RA,0.05,VWS V14.01,2013-05-27 21:48:00,
2013-05-27 17:54:00,52.9,49.5,29.99,ENE,70,7.0,7.0,88,0.05,,-RA,0.06,VWS V14.01,2013-05-27 21:54:00,
2013-05-27 17:59:00,52.8,49.3,29.99,East,80,1.0,15.0,88,0.05,,-RA,0.06,VWS V14.01,2013-05-27 21:59:00,
2013-05-27 18:04:00,52.5,49.4,29.98,East,84,0.0,8.0,89,0.05,,-RA,0.06,VWS V14.01,2013-05-27 22:04:00,
2013-05-27 18:09:00,52.4,49.3,29.98,ENE,72,0.0,7.0,89,0.06,,-RA,0.07,VWS V14.01,2013-05-27 22:09:00,
2013-05-27 18:14:00,52.3,49.2,29.98,East,101,4.0,8.0,89,0.06,,-RA,0.07,VWS V14.01,2013-05-27 22:14:00,
2013-05-27 18:19:00,52.2,49.1,29.98,ENE,71,0.0,5.0,89,0.06,,-RA,0.07,VWS V14.01,2013-05-27 22:19:00,
2013-05-27 18:24:00,52.2,49.1,29.97,ENE,71,0.0,0.0,89,0.06,,-RA,0.07,VWS V14.01,2013-05-27 22:24:00,
2013-05-27 18:29:00,52.2,49.4,29.97,East,91,5.0,11.0,90,0.06,,-RA,0.07,VWS V14.01,2013-05-27 22:29:00,
2013-05-27 18:34:00,52.2,49.4,29.97,East,97,0.0,7.0,90,0.03,,-RA,0.07,VWS V14.01,2013-05-27 22:34:00,
2013-05-27 18:39:00,52.2,49.4,29.97,East,80,3.0,7.0,90,0.04,,-RA,0.08,VWS V14.01,2013-05-27 22:39:00,
2013-05-27 18:44:00,52.2,49.4,29.97,East,80,0.0,0.0,90,0.04,,-RA,0.08,VWS V14.01,2013-05-27 22:44:00,
2013-05-27 18:49:00,52.2,49.4,29.97,East,92,0.0,9.0,90,0.04,,-RA,0.09,VWS V14.01,2013-05-27 22:49:00,
2013-05-27 18:54:00,52.2,49.4,29.96,ENE,76,5.0,8.0,90,0.04,,-RA,0.09,VWS V14.01,2013-05-27 22:54:00,
2013-05-27 18:59:00,52.2,49.4,29.96,East,87,3.0,7.0,90,0.04,,-RA,0.09,VWS V14.01,2013-05-27 22:59:00,
2013-05-27 19:04:00,52.2,49.4,29.95,ENE,70,5.0,11.0,90,0.03,,-RA,0.09,VWS V14.01,2013-05-27 23:04:00,
2013-05-27 19:09:00,52.2,49.7,29.95,East,91,7.0,7.0,91,0.03,,-RA,0.09,VWS V14.01,2013-05-27 23:09:00,
2013-05-27 19:14:00,52.2,49.7,29.94,East,99,0.0,1.0,91,0.04,,-RA,0.10,VWS V14.01,2013-05-27 23:14:00,
2013-05-27 19:19:00,52.3,49.8,29.94,East,93,3.0,5.0,91,0.03,,-RA,0.10,VWS V14.01,2013-05-27 23:19:00,
2013-05-27 19:24:00,52.3,49.8,29.94,East,87,7.0,8.0,91,0.03,,-RA,0.10,VWS V14.01,2013-05-27 23:24:00,
2013-05-27 19:29:00,52.3,49.8,29.94,East,80,6.0,6.0,91,0.03,,-RA,0.10,VWS V14.01,2013-05-27 23:29:00,
2013-05-27 19:34:00,52.3,49.8,29.94,East,95,0.0,8.0,91,0.03,,-RA,0.10,VWS V14.01,2013-05-27 23:34:00,
2013-05-27 19:39:00,52.4,49.8,29.94,ENE,58,5.0,5.0,91,0.03,,-RA,0.10,VWS V14.01,2013-05-27 23:39:00,
2013-05-27 19:44:00,52.4,49.8,29.94,ESE,104,3.0,8.0,91,0.03,,-RA,0.10,VWS V14.01,2013-05-27 23:44:00,
2013-05-27 19:49:00,52.4,49.8,29.94,ESE,103,0.0,0.0,91,0.02,,-RA,0.10,VWS V14.01,2013-05-27 23:49:00,
2013-05-27 19:54:00,52.4,49.8,29.94,East,101,1.0,7.0,91,0.02,,-RA,0.10,VWS V14.01,2013-05-27 23:54:00,
2013-05-27 19:59:00,52.5,50.0,29.94,East,94,0.0,5.0,91,0.02,,-RA,0.10,VWS V14.01,2013-05-27 23:59:00,
2013-05-27 20:05:00,52.5,50.0,29.94,ESE,102,3.0,7.0,91,0.01,,-RA,0.10,VWS V14.01,2013-05-28 00:05:00,
2013-05-27 20:10:00,52.5,50.0,29.94,ESE,112,0.0,2.0,91,0.01,,-RA,0.10,VWS V14.01,2013-05-28 00:10:00,
2013-05-27 20:15:00,52.5,50.2,29.94,East,80,0.0,8.0,92,0.01,,-RA,0.10,VWS V14.01,2013-05-28 00:15:00,
2013-05-27 20:20:00,52.6,50.0,29.93,ENE,78,0.0,9.0,91,0.00,,-RA,0.10,VWS V14.01,2013-05-28 00:20:00,
2013-05-27 20:25:00,52.6,50.3,29.94,East,95,2.0,9.0,92,0.00,,-RA,0.10,VWS V14.01,2013-05-28 00:25:00,
2013-05-27 20:30:00,52.6,50.3,29.94,East,90,4.0,7.0,92,0.00,,-RA,0.10,VWS V14.01,2013-05-28 00:30:00,
2013-05-27 20:35:00,52.6,50.3,29.95,East,97,8.0,9.0,92,0.00,,-RA,0.10,VWS V14.01,2013-05-28 00:35:00,
2013-05-27 20:40:00,52.7,50.5,29.94,East,85,0.0,3.0,92,0.00,,-RA,0.10,VWS V14.01,2013-05-28 00:40:00,
2013-05-27 20:45:00,52.7,50.5,29.94,ENE,67,3.0,4.0,92,0.00,,-RA,0.10,VWS V14.01,2013-05-28 00:45:00,
2013-05-27 20:50:00,52.6,50.3,29.93,ENE,75,3.0,11.0,92,0.00,,-RA,0.10,VWS V14.01,2013-05-28 00:50:00,
2013-05-27 20:55:00,52.7,50.5,29.93,East,84,3.0,7.0,92,0.00,,-RA,0.10,VWS V14.01,2013-05-28 00:55:00,
2013-05-27 21:00:00,52.7,50.5,29.93,ENE,70,6.0,8.0,92,0.00,,-RA,0.10,VWS V14.01,2013-05-28 01:00:00,
2013-05-27 21:05:00,52.8,50.5,29.93,ENE,78,1.0,6.0,92,0.00,,-RA,0.10,VWS V14.01,2013-05-28 01:05:00,
2013-05-27 21:10:00,52.8,50.5,29.93,East,80,0.0,0.0,92,0.00,,-RA,0.10,VWS V14.01,2013-05-28 01:10:00,
2013-05-27 21:15:00,52.8,50.5,29.94,East,93,0.0,12.0,92,0.00,,-RA,0.10,VWS V14.01,2013-05-28 01:15:00,
2013-05-27 21:20:00,52.9,50.6,29.94,East,87,0.0,0.0,92,0.00,,-RA,0.10,VWS V14.01,2013-05-28 01:20:00,
2013-05-27 21:25:00,52.9,50.6,29.93,ENE,74,5.0,8.0,92,0.00,,-RA,0.10,VWS V14.01,2013-05-28 01:25:00,
2013-05-27 21:30:00,52.9,50.6,29.93,ESE,113,0.0,0.0,92,0.00,,-RA,0.10,VWS V14.01,2013-05-28 01:30:00,
2013-05-27 21:35:00,52.9,50.6,29.93,East,82,0.0,0.0,92,0.00,,-RA,0.10,VWS V14.01,2013-05-28 01:35:00,
2013-05-27 21:40:00,52.9,50.6,29.93,ENE,68,3.0,10.0,92,0.00,,-RA,0.10,VWS V14.01,2013-05-28 01:40:00,
2013-05-27 21:45:00,52.9,50.6,29.93,East,92,5.0,10.0,92,0.00,,-RA,0.10,VWS V14.01,2013-05-28 01:45:00,
2013-05-27 21:50:00,52.9,50.6,29.93,East,84,0.0,6.0,92,0.00,,-RA,0.10,VWS V14.01,2013-05-28 01:50:00,
2013-05-27 21:55:00,53.0,50.7,29.93,East,89,4.0,8.0,92,0.00,,-RA,0.10,VWS V14.01,2013-05-28 01:55:00,
2013-05-27 22:00:00,53.0,50.7,29.93,ESE,106,0.0,10.0,92,0.00,,-RA,0.10,VWS V14.01,2013-05-28 02:00:00,
2013-05-27 22:05:00,53.1,50.8,29.94,ENE,70,0.0,0.0,92,0.00,,-RA,0.10,VWS V14.01,2013-05-28 02:05:00,
2013-05-27 22:10:00,53.1,50.8,29.93,ESE,115,0.0,0.0,92,0.00,,-RA,0.10,VWS V14.01,2013-05-28 02:10:00,
2013-05-27 22:16:00,53.1,50.8,29.93,ENE,72,5.0,5.0,92,0.00,,OVC006,0.10,VWS V14.01,2013-05-28 02:16:00,
2013-05-27 22:21:00,53.2,50.9,29.93,ESE,117,0.0,0.0,92,0.00,,OVC006,0.10,VWS V14.01,2013-05-28 02:21:00,
2013-05-27 22:26:00,53.2,50.9,29.93,ENE,62,1.0,5.0,92,0.00,,OVC006,0.10,VWS V14.01,2013-05-28 02:26:00,
2013-05-27 22:31:00,53.2,50.9,29.93,East,79,8.0,8.0,92,0.00,,OVC006,0.10,VWS V14.01,2013-05-28 02:31:00,
2013-05-27 22:36:00,53.2,50.9,29.93,ENE,65,0.0,4.0,92,0.00,,OVC006,0.10,VWS V14.01,2013-05-28 02:36:00,
2013-05-27 22:41:00,53.1,50.8,29.93,ENE,76,0.0,7.0,92,0.00,,OVC006,0.10,VWS V14.01,2013-05-28 02:41:00,
2013-05-27 22:46:00,53.2,50.9,29.93,East,97,3.0,4.0,92,0.00,,OVC006,0.10,VWS V14.01,2013-05-28 02:46:00,
2013-05-27 22:51:00,53.2,50.9,29.93,East,83,2.0,6.0,92,0.00,,OVC006,0.10,VWS V14.01,2013-05-28 02:51:00,
2013-05-27 22:56:00,53.2,50.9,29.93,East,85,0.0,6.0,92,0.00,,OVC006,0.10,VWS V14.01,2013-05-28 02:56:00,
2013-05-27 23:01:00,53.1,50.8,29.93,ENE,74,1.0,10.0,92,0.01,,OVC006,0.11,VWS V14.01,2013-05-28 03:01:00,
2013-05-27 23:06:00,53.1,50.8,29.92,ENE,73,16.0,16.0,92,0.01,,OVC006,0.11,VWS V14.01,2013-05-28 03:06:00,
2013-05-27 23:11:00,53.1,50.8,29.92,East,89,3.0,10.0,92,0.01,,-RA,0.11,VWS V14.01,2013-05-28 03:11:00,
2013-05-27 23:16:00,53.1,50.8,29.92,East,97,0.0,5.0,92,0.01,,-RA,0.11,VWS V14.01,2013-05-28 03:16:00,
2013-05-27 23:21:00,53.2,50.9,29.92,East,87,0.0,5.0,92,0.01,,-RA,0.11,VWS V14.01,2013-05-28 03:21:00,
2013-05-27 23:26:00,53.1,50.8,29.92,East,83,3.0,8.0,92,0.01,,-RA,0.11,VWS V14.01,2013-05-28 03:26:00,
2013-05-27 23:31:00,53.1,50.8,29.91,East,82,0.0,7.0,92,0.01,,-RA,0.11,VWS V14.01,2013-05-28 03:31:00,
2013-05-27 23:36:00,53.2,50.9,29.91,East,82,3.0,7.0,92,0.01,,-RA,0.11,VWS V14.01,2013-05-28 03:36:00,
2013-05-27 23:41:00,53.2,50.9,29.91,East,94,2.0,9.0,92,0.01,,-RA,0.11,VWS V14.01,2013-05-28 03:41:00,
2013-05-27 23:46:00,53.2,50.9,29.90,East,97,4.0,6.0,92,0.01,,-RA,0.11,VWS V14.01,2013-05-28 03:46:00,
2013-05-27 23:51:00,53.2,50.9,29.90,East,101,0.0,7.0,92,0.01,,-RA,0.11,VWS V14.01,2013-05-28 03:51:00,
2013-05-27 23:56:00,53.3,51.0,29.90,ENE,76,3.0,8.0,92,0.01,,-RA,0.11,VWS V14.01,2013-05-28 03:56:00,